Weather in Porgera

Papua New Guinea     5°28′00″S   143°08′49″E
temp.,
°C
wind,
m/s
gust,
m/s
humid.,
%
clouds,
%
prec.,
mm/h
press.,
hPa
HPBL,
m
13 may, thu
thu1301:00+10sw009867 0.1 101716
04:00+10sse009982 0.4 101621
07:00+11se119792 0.4 101726
10:00+15n118349 1.0 1016430
13:00+15n128755 2.5 1012653
16:00+15nnw129488 5.8 1011391
19:00+12nw009973 3.3 101425
22:00+12sse119998 3.9 101626
14 may, fri
fri1401:00+11e0099100 0.5 101524
04:00+11e009994 1.0 101436
07:00+11ese1199100 0.5 101545
10:00+15n118398 0.9 1015744
13:00+14nnw1193100 2.0 1012336
16:00+13nw119886 5.6 1011174
19:00+12s1199100 7.4 101431
22:00+11sse119999 11.6 101653
15 may, sat
sat1501:00+11sse119995 0.5 101624
04:00+10sse119991 1.4 101546
07:00+11sse129887 1.5 101657
10:00+15e117377 2.0 1014430
13:00+19nnw116069 0.7 10101362
16:00+14wnw119693 3.9 1011114
19:00+12s1199100 6.3 101325
22:00+11sse1110099 10.5 101634
16 may, sun
sun1601:00+11sse119978 0.8 101527
04:00+10sse119883 0.9 101428
07:00+10sse119892 0.0 101636
10:00+18nne1163100 0.0 10131045
13:00+15nnw1288100 1.4 1011629
16:00+14nnw1198100 4.6 1011224
19:00+12n01100100 4.3 101384
22:00+12ese00100100 12.8 101661
17 may, mon
mon1701:00+12se1199100 5.9 101546
04:00+10sse119995 7.6 101517
07:00+10e009990 0.3 101630
10:00+18nne126229 0.3 1014983
13:00+17nnw227491 0.8 10111070
16:00+14nne119885 3.5 1012162
19:00+12nw009992 2.8 101542
22:00+11sse009897 3.1 101713